x

La Perouse Bank (46206) Wave Buoy

9:00 - Wed 28th Jun 2017 All times are PDT. -7 hours from GMT.

  • Sig Wave height 6.2ft
  • Peak Period 8s
  • Wind
    16mph, 20mph gusts
  • Sea Temp 56°f
  • Aire Temp 56°f
  • Sea Pressure 1018.2mb
  • La Perouse Bank
  • La Perouse Bank

More Historic Weather Station data

Upgrade to MSW Pro to gain access to the past 30 days of data for over 8000 Wavebouys and Weather Stations around the globe.

Join Pro

Comparision Forecast

View Surf forecast
   
mié 06/28 9:00 6ft 8s 16 20 mph 1018.2mb 56f 56f
8:00 6ft 12s 16 18 mph 1018mb 57f 56f
7:00 6ft 7s 18 22 mph 1017.9mb 57f 56f
6:00 6.5ft 8s 16 20 mph 1017.9mb 58f 56f
5:00 6ft 8s 13 16 mph 1017.8mb 59f 57f
4:00 6ft 8s 9 13 mph 1017.8mb 60f 58f
3:00 7ft 8s 2 4 mph 1017.6mb 60f 57f
2:00 7ft 8s 4 7 mph 1017.7mb 59f 57f
1:00 7ft 8s 2 4 mph 1017.7mb 58f 57f
12:00 7.5ft 8s 4 7 mph 1017.6mb 58f 56f
11:00 7.5ft 8s 4 4 mph 1017.4mb 57f 56f
10:00 7ft 8s  -  2 mph 1017.1mb 56f 56f
9:00 7ft 8s 7 9 mph 1016.5mb 56f 56f
8:00 7ft 8s 9 11 mph 1016mb 56f 55f
7:00 7ft 8s 9 11 mph 1015.8mb 56f 55f
6:00 7.5ft 8s 4 9 mph 1015.6mb 56f 55f
5:00 7.5ft 8s 4 7 mph 1015.3mb 56f 55f
4:00 8ft 8s 9 11 mph 1014.8mb 56f 56f
3:00 8.5ft 8s 13 16 mph 1014.5mb 56f 56f
2:00 9.5ft 9s 16 20 mph 1014.5mb 56f 56f
1:00 9.5ft 8s 18 22 mph 1014.4mb 56f 56f
mar 06/27 11:00 9.5ft 8s 20 25 mph 1015.2mb 56f 56f
10:00 9ft 8s 18 22 mph 1015.6mb 56f 56f
9:00 8ft 8s 20 22 mph 1015.6mb 56f 56f
8:00 6.5ft 9s 18 22 mph 1016.2mb 57f 56f
7:00 6.5ft 8s 18 22 mph 1016.4mb 58f 57f
6:00 6.5ft 9s 9 13 mph 1016.7mb 58f 57f
5:00 6ft 9s 7 9 mph 1017.1mb 58f 58f
4:00 6ft 8s 7 9 mph 1017.7mb 58f 58f
3:00 6.5ft 8s 4 7 mph 1017.8mb 58f 57f
2:00 6ft 8s 2 4 mph 1018mb 57f 58f
1:00 7ft 7s 2 4 mph 1018.1mb 57f 57f
12:00 7ft 8s 4 7 mph 1018.3mb 57f 57f
11:00 7ft 8s 7 9 mph 1018.2mb 56f 56f
10:00 7ft 8s 9 11 mph 1018mb 56f 56f
9:00 7ft 8s 9 13 mph 1017.7mb 56f 56f
8:00 6.5ft 8s 9 11 mph 1017.3mb 56f 56f
7:00 6.5ft 8s 11 16 mph 1016.6mb 56f 56f
6:00 7ft 9s 11 13 mph 1016.3mb 56f 55f
5:00 7ft 7s 9 11 mph 1016.2mb 56f 55f
4:00 7.5ft 8s 9 13 mph 1015.9mb 56f 55f
3:00 7.5ft 8s 11 16 mph 1015.5mb 56f 56f
2:00 8ft 8s 13 18 mph 1015mb 56f 56f
1:00 8.5ft 8s 9 11 mph 1014.7mb 56f 56f
12:00 8.5ft 8s 9 11 mph 1014.5mb 56f 56f
lun 06/26 11:00 9ft 8s 16 20 mph 1014.6mb 56f 57f
10:00 9ft 7s 16 20 mph 1014.6mb 56f 57f
9:00 8.5ft 7s 18 20 mph 1014.8mb 56f 57f
8:00 8ft 8s 18 22 mph 1015mb 56f 57f
7:00 8ft 7s 18 20 mph 1015.5mb 56f 57f
6:00 7.5ft 7s 16 20 mph 1015.8mb 56f 57f
5:00 7.5ft 7s 13 18 mph 1016.1mb 56f 57f
4:00 7.5ft 8s 16 18 mph 1016.2mb 56f 56f
3:00 8ft 8s 18 22 mph 1016mb 56f 56f
2:00 8ft 7s 20 25 mph 1015.8mb 56f 56f
1:00 8ft 8s 20 27 mph 1015.6mb 56f 56f
12:00 9ft 8s 22 27 mph 1015.1mb 55f 56f
11:00 9ft 8s 20 25 mph 1015.1mb 55f 56f
10:00 9ft 9s 20 25 mph 1015.1mb 55f 56f
9:00 9ft 8s 22 27 mph 1014.9mb 55f 55f
8:00 9ft 8s 22 27 mph 1014.5mb 55f 55f
7:00 9ft 8s 22 27 mph 1014.4mb 55f 55f
6:00 9ft 8s 25 27 mph 1014.3mb 55f 55f
5:00 9ft 7s 22 27 mph 1014.6mb 55f 55f
4:00 9ft 8s 22 27 mph 1014.4mb 55f 55f
3:00 9ft 8s 22 29 mph 1014.1mb 55f 55f
2:00 9ft 8s 22 29 mph 1013.7mb 56f 55f
1:00 9.5ft 8s 25 31 mph 1013.2mb 56f 55f
12:00 9ft 7s 25 29 mph 1012.9mb 56f 55f
dom 06/25 11:00 8.5ft 7s 25 29 mph 1012.3mb 56f 55f
10:00 9ft 8s 25 29 mph 1013.1mb 56f 56f
9:00 8.5ft 7s 22 29 mph 1013.1mb 56f 56f
8:00 8ft 7s 27 31 mph 1013.1mb 57f 56f
7:00 8ft 7s 27 31 mph 1012.9mb 57f 56f
6:00 8ft 6s 27 31 mph 1013.2mb 57f 56f
5:00 7.5ft 7s 25 31 mph 1014.1mb 57f 57f
4:00 7.5ft 7s 25 29 mph 1013.6mb 57f 57f
3:00 7ft 7s 25 29 mph 1014mb 57f 57f
2:00 6.5ft 6s 20 27 mph 1014.2mb 57f 57f
1:00 6ft 6s 20 27 mph 1014.5mb 57f 57f
12:00 5ft 7s 18 25 mph 1014.7mb 57f 57f
11:00 4.5ft 6s 16 20 mph 1014.7mb 57f 58f
10:00 4ft 6s 16 18 mph 1014.8mb 57f 58f
9:00 4ft 6s 13 16 mph 1014.7mb 57f 58f
8:00 3.5ft 16s 13 16 mph 1014.7mb 57f 58f
7:00 3.5ft 6s 13 16 mph 1014.6mb 57f 58f
6:00 3.5ft 16s 11 13 mph 1014.7mb 57f 58f